Terug naar catalogus

STARLINK-36312

ActiefCommunicatieSSO
NORAD 67609·PAYLOAD·🇺🇸 United States

Gelanceerd Jan 29, 2026 vanaf Vandenberg Space Force Base

Loading…

Volgende Passages (komende 24 uur)

TLE

VersSource: CelesTrak SupGP

Epoch: Sep 15, 2026, 03:30 UTC

1 67609C 26018W   26258.14631944  .00005515  00000+0  17122-3 0  2589
2 67609  97.2853 321.7127 0000882  80.8224 217.5755 15.33436427    10

Volg STARLINK-36312 in realtime met AllMySat

Download on the App Store